TimePDT,TemperatureF,Dew PointF,Humidity,Sea Level PressureIn,VisibilityMPH,Wind Direction,Wind SpeedMPH,Gust SpeedMPH,PrecipitationIn,Events,Conditions,WindDirDegrees,DateUTC
12:14 AM,46.4,42.8,87,30.06,10.0,Calm,Calm,-,N/A,,Overcast,0,2013-06-18 07:14:00
12:27 AM,46.4,42.8,87,30.06,10.0,Calm,Calm,-,N/A,,Overcast,0,2013-06-18 07:27:00
12:56 AM,46.0,43.0,89,29.97,10.0,Calm,Calm,-,N/A,,Overcast,0,2013-06-18 07:56:00
1:17 AM,46.4,42.8,87,30.05,10.0,WSW,3.5,-,N/A,,Overcast,240,2013-06-18 08:17:00
1:40 AM,44.6,42.8,93,30.05,10.0,SW,3.5,-,N/A,,Overcast,230,2013-06-18 08:40:00
1:56 AM,45.0,43.0,93,29.96,10.0,South,3.5,-,N/A,,Overcast,180,2013-06-18 08:56:00
2:08 AM,44.6,44.6,100,30.04,3.0,SSW,3.5,-,N/A,,Overcast,200,2013-06-18 09:08:00
2:16 AM,44.6,44.6,100,30.04,2.0,South,3.5,-,N/A,,Overcast,190,2013-06-18 09:16:00
2:23 AM,44.6,44.6,100,30.04,1.8,SW,4.6,-,N/A,,Overcast,220,2013-06-18 09:23:00
2:30 AM,44.6,44.6,100,30.04,0.8,Calm,Calm,-,N/A,,Mist,0,2013-06-18 09:30:00
2:56 AM,44.1,43.0,96,29.97,1.5,Variable,3.5,-,N/A,,Overcast,0,2013-06-18 09:56:00
2:59 AM,44.6,42.8,93,30.04,3.0,Calm,Calm,-,N/A,,Overcast,0,2013-06-18 09:59:00
3:20 AM,44.6,42.8,93,30.04,10.0,Variable,3.5,-,N/A,,Overcast,0,2013-06-18 10:20:00
3:33 AM,44.6,42.8,93,30.03,10.0,Variable,3.5,-,N/A,,Overcast,0,2013-06-18 10:33:00
3:56 AM,43.0,41.0,93,29.98,10.0,SW,3.5,-,N/A,,Overcast,230,2013-06-18 10:56:00
4:12 AM,42.8,41.0,93,30.03,10.0,Variable,4.6,-,N/A,,Overcast,0,2013-06-18 11:12:00
4:24 AM,42.8,39.2,87,30.02,10.0,Variable,4.6,-,N/A,,Overcast,0,2013-06-18 11:24:00
4:56 AM,42.1,39.9,92,29.97,10.0,SSW,5.8,-,N/A,,Mostly Cloudy,210,2013-06-18 11:56:00
5:06 AM,41.0,41.0,100,30.02,2.5,SW,8.1,-,N/A,,Overcast,220,2013-06-18 12:06:00
5:25 AM,41.0,39.2,93,30.02,8.0,SW,9.2,-,N/A,,Scattered Clouds,220,2013-06-18 12:25:00
5:56 AM,41.0,39.0,93,29.97,10.0,SW,9.2,-,N/A,,Clear,230,2013-06-18 12:56:00
6:27 AM,41.0,39.2,93,30.02,10.0,SW,8.1,-,N/A,,Scattered Clouds,220,2013-06-18 13:27:00
6:56 AM,41.0,39.0,93,29.99,10.0,SSW,3.5,-,N/A,,Clear,200,2013-06-18 13:56:00
7:04 AM,41.0,39.2,93,30.02,10.0,Calm,Calm,-,N/A,,Partly Cloudy,0,2013-06-18 14:04:00
7:56 AM,43.0,37.9,82,29.99,10.0,Calm,Calm,-,N/A,,Clear,0,2013-06-18 14:56:00
8:56 AM,46.9,35.1,63,29.98,10.0,SW,3.5,-,N/A,,Clear,230,2013-06-18 15:56:00
9:56 AM,48.9,37.0,64,29.98,10.0,Variable,3.5,-,N/A,,Clear,0,2013-06-18 16:56:00
10:56 AM,51.1,37.9,61,29.97,10.0,Variable,3.5,-,N/A,,Overcast,0,2013-06-18 17:56:00
11:31 AM,50.0,39.2,66,30.01,10.0,Calm,Calm,-,N/A,,Overcast,0,2013-06-18 18:31:00
11:40 AM,51.8,39.2,62,30.01,10.0,Variable,3.5,-,N/A,,Overcast,0,2013-06-18 18:40:00
11:56 AM,53.1,39.0,59,29.97,10.0,Variable,3.5,-,N/A,,Overcast,0,2013-06-18 18:56:00
12:38 PM,48.2,41.0,76,30.02,6.0,Variable,3.5,-,0.00,Rain,Light Rain,0,2013-06-18 19:38:00
12:56 PM,50.0,43.0,77,29.99,10.0,South,3.5,-,0.00,Rain,Light Rain,190,2013-06-18 19:56:00
1:56 PM,53.1,39.9,61,29.98,10.0,Variable,4.6,-,0.00,,Mostly Cloudy,0,2013-06-18 20:56:00
2:13 PM,48.2,39.2,71,30.02,10.0,SSW,8.1,-,N/A,,Overcast,210,2013-06-18 21:13:00
2:20 PM,48.2,42.8,82,30.02,10.0,SW,8.1,-,N/A,,Overcast,220,2013-06-18 21:20:00
2:56 PM,48.9,43.0,80,29.99,10.0,Calm,Calm,-,0.00,,Overcast,0,2013-06-18 21:56:00
3:11 PM,48.2,42.8,82,30.02,10.0,West,3.5,-,N/A,,Overcast,270,2013-06-18 22:11:00
3:56 PM,55.0,39.9,57,29.97,10.0,Calm,Calm,-,N/A,,Mostly Cloudy,0,2013-06-18 22:56:00
4:42 PM,51.8,42.8,71,30.00,10.0,Variable,3.5,-,N/A,,Overcast,0,2013-06-18 23:42:00
4:56 PM,50.0,42.1,74,29.99,10.0,Calm,Calm,-,N/A,,Overcast,0,2013-06-18 23:56:00
5:23 PM,51.8,39.2,62,30.01,10.0,Variable,4.6,-,N/A,,Overcast,0,2013-06-19 00:23:00
5:56 PM,48.0,41.0,77,30.00,10.0,Calm,Calm,-,N/A,,Mostly Cloudy,0,2013-06-19 00:56:00
6:15 PM,48.2,42.8,82,30.01,10.0,Variable,3.5,-,N/A,,Overcast,0,2013-06-19 01:15:00
6:56 PM,46.0,41.0,83,30.00,10.0,Calm,Calm,-,N/A,,Overcast,0,2013-06-19 01:56:00
7:39 PM,44.6,39.2,81,30.00,10.0,Calm,Calm,-,N/A,,Overcast,0,2013-06-19 02:39:00
7:56 PM,45.0,39.9,82,30.00,10.0,Calm,Calm,-,N/A,,Overcast,0,2013-06-19 02:56:00
8:30 PM,44.6,39.2,81,30.01,10.0,Calm,Calm,-,N/A,,Overcast,0,2013-06-19 03:30:00
8:54 PM,42.8,39.2,87,30.01,10.0,Calm,Calm,-,N/A,,Overcast,0,2013-06-19 03:54:00
8:56 PM,43.0,39.0,86,30.00,10.0,Calm,Calm,-,N/A,,Overcast,0,2013-06-19 03:56:00
9:06 PM,42.8,39.2,87,30.01,10.0,Variable,3.5,-,N/A,,Overcast,0,2013-06-19 04:06:00
9:13 PM,42.8,39.2,87,30.01,10.0,Variable,5.8,-,N/A,,Overcast,0,2013-06-19 04:13:00
9:25 PM,42.8,39.2,87,30.01,10.0,Variable,4.6,-,N/A,,Overcast,0,2013-06-19 04:25:00
9:56 PM,43.0,39.9,89,30.00,10.0,Calm,Calm,-,N/A,,Overcast,0,2013-06-19 04:56:00
10:07 PM,42.8,41.0,93,30.02,3.0,WSW,5.8,-,0.01,Rain,Light Rain,240,2013-06-19 05:07:00
10:14 PM,42.8,39.2,87,30.02,6.0,SW,6.9,-,0.01,Rain,Light Rain,230,2013-06-19 05:14:00
10:20 PM,41.0,39.2,93,30.02,8.0,SW,5.8,-,0.01,,Overcast,230,2013-06-19 05:20:00
10:28 PM,41.0,39.2,93,30.02,10.0,WSW,5.8,-,0.01,,Overcast,250,2013-06-19 05:28:00
10:56 PM,41.0,39.9,96,30.01,7.0,Variable,4.6,-,0.01,,Overcast,0,2013-06-19 05:56:00
11:04 PM,41.0,39.2,93,30.02,8.0,Variable,3.5,-,N/A,,Overcast,0,2013-06-19 06:04:00
11:18 PM,41.0,39.2,93,30.02,10.0,Variable,3.5,-,N/A,,Overcast,0,2013-06-19 06:18:00
11:56 PM,41.0,39.9,96,29.99,9.0,Variable,3.5,-,0.01,Rain,Light Rain,0,2013-06-19 06:56:00